Terminal Aerodrome Forecast
Issued by NWS Cleveland, OH

Home | Current Version | Previous Version | Graphics & Text | Print | Product List | Glossary On
Versions: 1 2 3 4 5 6 7 8 9 10 11 12 13 14 15 16 17 18 19 20 21 22 23 24 25 26 27 28 29 30 31 32 33 34 35 36
000
FTUS41 KCLE 221800 AAA
TAFCLE
TAF AMD
KCLE 221816Z 2218/2324 34008KT 3SM BR OVC004
      TEMPO 2218/2220 5SM BR OVC008
     FM222000 33012KT P6SM SCT006 BKN035
      TEMPO 2220/2224 5SM HZ BKN006
     FM230300 33011KT 6SM BR SCT008 OVC012
      TEMPO 2304/2308 OVC008
     FM230800 34011KT 6SM BR BKN008
     FM231300 33014G20KT P6SM SCT012 BKN035
     FM231600 34015G25KT P6SM SCT250=

USA.gov is the U.S. government's official web portal to all federal, state and local government web resources and services.